Weather History for Fergus Falls, MN

Change the Weather History Date:

Sunday, February 3, 2013

  Actual Average Record
Temperature  
Mean Temperature 0 °F -  
Max Temperature 8 °F 18 °F 49 °F (1992)
Min Temperature -7 °F -1 °F -35 °F (1989)
Degree Days  
Heating Degree Days 64    
Moisture  
Dew Point -3 °F    
Average Humidity 79    
Maximum Humidity 92    
Minimum Humidity 67    
Precipitation  
Precipitation 0.00 in - - ()
Sea Level Pressure  
Sea Level Pressure 30.03 in    
Wind  
Wind Speed 4 mph (North)    
Max Wind Speed 9 mph    
Max Gust Speed -    
Visibility 7 miles    
Events Snow    
Averages and records for this station are not official NWS values.
T = Trace of Precipitation, MM = Missing Value Source: NWS Daily Summary

Daily Weather History Graph

Daily Weather History Graph

Search for Another Location

Airport:

Trip Planner

Search our weather history database for the weather conditions in past years. The results will help you decide how hot, cold, wet, or windy it might be!

Date:

Astronomy

Feb. 03, 2013 Rise Set
Actual Time 7:44 AM CST 5:32 PM CST
Civil Twilight 7:12 AM CST 6:04 PM CST
Nautical Twilight 6:37 AM CST 6:40 PM CST
Astronomical Twilight 6:01 AM CST 7:15 PM CST
Moon 1:14 AM CST (2/3) 11:08 AM CST (2/3)
Length of Visible Light 10h 51m
Length of Day
9h 48m
Waning Gibbous, 48% of the Moon is Illuminated
Feb 3
Waning Gibbous
Feb 10
New
Feb 17
First Quarter
Feb 25
Full
Mar 4
Last Quarter

Hourly Weather History & Observations

Time (CST) Temp. Windchill Dew Point Humidity Pressure Visibility Wind Dir Wind Speed Gust Speed Precip Events Conditions
12:13 AM 1.4 °F -13.5 °F -2.2 °F 85% 30.06 in 7.0 mi NW 9.2 mph - N/A Snow Light Snow
12:33 AM -0.4 °F -15.7 °F -5.8 °F 78% 30.07 in 5.0 mi NW 9.2 mph - N/A Snow Light Snow
12:53 AM -2.2 °F -14.2 °F -5.8 °F 85% 30.07 in 4.0 mi NW 5.8 mph - N/A Snow Light Snow
1:13 AM -2.2 °F - -5.8 °F 85% 30.05 in 10.0 mi Calm Calm - N/A   Scattered Clouds
1:33 AM -2.2 °F -10.4 °F -7.6 °F 78% 30.07 in 10.0 mi West 3.5 mph - N/A   Clear
1:53 AM -4.0 °F -14.6 °F -9.4 °F 78% 30.08 in 5.0 mi WNW 4.6 mph - N/A   Haze
2:13 AM -7.6 °F -22.1 °F -11.2 °F 84% 30.08 in 10.0 mi WNW 6.9 mph - N/A   Clear
2:33 AM -7.6 °F -23.4 °F -11.2 °F 84% 30.09 in 10.0 mi West 8.1 mph - N/A   Clear
2:53 AM -5.8 °F -22.4 °F -9.4 °F 84% 30.10 in 10.0 mi West 9.2 mph - N/A   Clear
3:13 AM -7.6 °F -23.4 °F -11.2 °F 84% 30.09 in 10.0 mi WNW 8.1 mph - N/A   Clear
3:53 AM -4.0 °F -16.3 °F -7.6 °F 85% 30.08 in 10.0 mi NNW 5.8 mph - N/A   Scattered Clouds
4:14 AM -2.2 °F -10.4 °F -7.6 °F 78% 30.07 in 10.0 mi NNW 3.5 mph - N/A Snow Light Snow
4:33 AM -2.2 °F -10.4 °F -5.8 °F 85% 30.06 in 10.0 mi NW 3.5 mph - N/A   Scattered Clouds
4:53 AM -4.0 °F - -7.6 °F 85% 30.06 in 7.0 mi Calm Calm - N/A Snow Light Snow
5:14 AM -2.2 °F - -7.6 °F 78% 30.07 in 5.0 mi Calm Calm - N/A Snow Light Snow
5:33 AM -2.2 °F - -5.8 °F 85% 30.07 in 10.0 mi Calm Calm - N/A   Overcast
5:53 AM -2.2 °F - -5.8 °F 85% 30.06 in 10.0 mi Calm Calm - N/A   Mostly Cloudy
6:14 AM -0.4 °F - -5.8 °F 78% 30.05 in 10.0 mi Calm Calm - N/A   Mostly Cloudy
6:33 AM -0.4 °F - -4.0 °F 85% 30.06 in 10.0 mi Calm Calm - N/A   Overcast
6:53 AM -0.4 °F - -4.0 °F 85% 30.06 in 10.0 mi Calm Calm - N/A   Overcast
7:13 AM -0.4 °F - -4.0 °F 85% 30.07 in 10.0 mi Calm Calm - N/A   Overcast
7:33 AM 1.4 °F - -4.0 °F 78% 30.07 in 10.0 mi Calm Calm - N/A   Overcast
7:53 AM 1.4 °F - -2.2 °F 85% 30.08 in 10.0 mi Calm Calm - N/A Snow Light Snow
8:13 AM 1.4 °F - -2.2 °F 85% 30.07 in 3.0 mi Calm Calm - N/A Snow Light Snow
8:33 AM 1.4 °F - -2.2 °F 85% 30.06 in 2.0 mi Calm Calm - N/A Snow Light Snow
8:53 AM 1.4 °F - -2.2 °F 85% 30.06 in 10.0 mi Calm Calm - N/A   Mostly Cloudy
9:13 AM 3.2 °F - -0.4 °F 85% 30.06 in 7.0 mi Calm Calm - N/A Snow Light Snow
9:33 AM 3.2 °F - -0.4 °F 85% 30.06 in 2.5 mi Calm Calm - N/A Snow Light Snow
9:53 AM 3.2 °F - 1.4 °F 92% 30.06 in 4.0 mi Calm Calm - N/A Snow Light Snow
10:13 AM 5.0 °F - 1.4 °F 85% 30.06 in 4.0 mi Calm Calm - N/A Snow Light Snow
10:53 AM 6.8 °F - 1.4 °F 79% 30.06 in 2.0 mi Calm Calm - N/A Snow Light Snow
11:13 AM 6.8 °F - 1.4 °F 79% 30.05 in 2.5 mi Calm Calm - N/A Snow Light Snow
11:33 AM 6.8 °F - 3.2 °F 85% 30.05 in 2.5 mi Calm Calm - N/A Snow Light Snow
11:53 AM 6.8 °F -0.1 °F 1.4 °F 79% 30.03 in 3.0 mi ENE 3.5 mph - N/A Snow Light Snow
12:13 PM 6.8 °F - 1.4 °F 79% 30.03 in 2.0 mi Calm Calm - N/A Snow Light Snow
12:33 PM 8.6 °F - 1.4 °F 73% 30.03 in 5.0 mi Calm Calm - N/A Snow Light Snow
12:53 PM 8.6 °F 2.0 °F 1.4 °F 73% 30.01 in 7.0 mi ENE 3.5 mph - N/A Snow Light Snow
1:13 PM 8.6 °F 2.0 °F -0.4 °F 67% 30.00 in 10.0 mi ENE 3.5 mph - N/A Snow Light Snow
1:33 PM 8.6 °F - -0.4 °F 67% 30.00 in 10.0 mi Calm Calm - N/A   Mostly Cloudy
1:53 PM 8.6 °F - -0.4 °F 67% 29.99 in 10.0 mi Calm Calm - N/A   Mostly Cloudy
2:13 PM 8.6 °F 2.0 °F -0.4 °F 67% 29.98 in 10.0 mi ENE 3.5 mph - N/A   Mostly Cloudy
2:53 PM 8.6 °F - -0.4 °F 67% 29.97 in 10.0 mi Calm Calm - N/A   Mostly Cloudy
3:13 PM 8.6 °F 2.0 °F -0.4 °F 67% 29.97 in 10.0 mi ENE 3.5 mph - N/A   Scattered Clouds
3:33 PM 8.6 °F 2.0 °F -0.4 °F 67% 29.97 in 10.0 mi ENE 3.5 mph - N/A   Scattered Clouds
3:53 PM 8.6 °F 2.0 °F -0.4 °F 67% 29.97 in 7.0 mi ENE 3.5 mph - N/A   Scattered Clouds
4:13 PM 8.6 °F 0.1 °F -0.4 °F 67% 29.97 in 10.0 mi North 4.6 mph - N/A   Mostly Cloudy
4:53 PM 8.6 °F - -0.4 °F 67% 29.97 in 10.0 mi Calm Calm - N/A   Overcast
5:13 PM 8.6 °F 2.0 °F -0.4 °F 67% 29.96 in 10.0 mi North 3.5 mph - N/A   Overcast
5:53 PM 6.8 °F -0.1 °F -0.4 °F 72% 29.97 in 3.0 mi North 3.5 mph - N/A Snow Light Snow
6:13 PM 6.8 °F -2.0 °F -0.4 °F 72% 29.98 in 5.0 mi North 4.6 mph - N/A Snow Light Snow
6:33 PM 6.8 °F -0.1 °F 1.4 °F 79% 29.98 in 2.5 mi North 3.5 mph - N/A Snow Light Snow
6:53 PM 5.0 °F -4.1 °F -0.4 °F 78% 29.98 in 4.0 mi NNE 4.6 mph - N/A Snow Light Snow
7:13 PM 5.0 °F -4.1 °F -0.4 °F 78% 29.97 in 3.0 mi NNE 4.6 mph - N/A Snow Light Snow
7:33 PM 5.0 °F -2.1 °F -0.4 °F 78% 29.98 in 3.0 mi North 3.5 mph - N/A Snow Light Snow
7:53 PM 5.0 °F -2.1 °F -0.4 °F 78% 29.99 in 2.0 mi North 3.5 mph - N/A Snow Light Snow
8:13 PM 5.0 °F - -0.4 °F 78% 29.99 in 2.0 mi Calm Calm - N/A Snow Light Snow
8:33 PM 5.0 °F -2.1 °F -0.4 °F 78% 29.99 in 3.0 mi North 3.5 mph - N/A Snow Light Snow
8:53 PM 5.0 °F -4.1 °F -0.4 °F 78% 29.98 in 4.0 mi North 4.6 mph - N/A Snow Light Snow
9:13 PM 3.2 °F -6.2 °F -0.4 °F 85% 29.98 in 7.0 mi NNE 4.6 mph - N/A   Mostly Cloudy
9:33 PM 3.2 °F -6.2 °F -0.4 °F 85% 29.99 in 10.0 mi NNE 4.6 mph - N/A   Mostly Cloudy
9:53 PM 3.2 °F -7.8 °F -2.2 °F 78% 29.99 in 10.0 mi NNE 5.8 mph - N/A   Scattered Clouds
10:13 PM 3.2 °F -7.8 °F -2.2 °F 78% 30.00 in 10.0 mi NNE 5.8 mph - N/A   Clear
10:53 PM 1.4 °F -6.2 °F -5.8 °F 72% 29.99 in 10.0 mi NE 3.5 mph - N/A   Clear
11:13 PM -0.4 °F -8.3 °F -5.8 °F 78% 30.00 in 10.0 mi NE 3.5 mph - N/A   Mostly Cloudy
11:33 PM 1.4 °F -8.3 °F -4.0 °F 78% 29.99 in 10.0 mi NE 4.6 mph - N/A   Overcast
11:53 PM 1.4 °F -8.3 °F -4.0 °F 78% 30.00 in 10.0 mi NE 4.6 mph - N/A   Overcast